This demonstration page uses our WeatherBlox Daily Observations layout. Learn more.

Left ArrowRight Arrow

Hourly Observations for March 15, 2021

Temp ( °F °C ) Dew Point ( °F °C ) Humidity (%) Winds ( mph kmh ) Pressure ( in mb ) Visibility ( mi km ) Precip ( " mm )
12:53 am 00:53 Clear 38 3.3 26 -3.3 62 62 ENE 6 9 29.75 1008 10 16 N/A
1:53 am 01:53 Clear 38 3.3 27 -2.8 65 65 E 6 9 29.73 1007 10 16 N/A
2:53 am 02:53 Clear 40 4.4 28 -2.2 63 63 E 6 9 29.72 1007 10 16 N/A
3:53 am 03:53 Clear 34 1.1 27 -2.8 76 76 N N/A 29.72 1007 10 16 N/A
4:53 am 04:53 Clear 26 -3.3 23 -5 88 88 SW 3 6 29.73 1007 10 16 N/A
5:53 am 05:53 Clear 27 -2.8 25 -3.9 92 92 SW 8 13 29.75 1007 10 16 N/A
6:53 am 06:53 Clear 27 -2.8 25 -3.9 92 92 SSW 6 9 29.76 1008 10 16 N/A
7:53 am 07:53 Sunny 26 -3.3 24 -4.4 92 92 WSW 7 11 29.79 1009 10 16 N/A
8:53 am 08:53 Sunny 29 -1.7 26 -3.3 89 89 SW 5 7 29.80 1009 10 16 N/A
9:53 am 09:53 Sunny 36 2.2 28 -2.2 73 73 N N/A 29.82 1010 10 16 N/A
10:53 am 10:53 Sunny 37 2.8 29 -1.7 73 73 SE 5 7 29.83 1010 10 16 N/A
11:53 am 11:53 Sunny 39 3.9 29 -1.7 67 67 SE 5 7 29.83 1010 10 16 N/A
12:53 pm 12:53 Sunny 45 7.2 31 -0.6 58 58 VRB 3 6 29.81 1009 10 16 N/A
1:53 pm 13:53 Sunny 48 8.9 32 undefined 54 54 WSW 6 9 29.80 1009 10 16 N/A
2:53 pm 14:53 Sunny 49 9.4 32 undefined 52 52 WSW 3 6 29.79 1009 10 16 N/A
3:53 pm 15:53 Sunny 51 10.6 30 -1.1 44 44 N 13 20 29.81 1010 10 16 N/A
4:53 pm 16:53 Sunny 50 10 31 -0.6 48 48 N 22 35 29.85 1011 10 16 N/A
5:53 pm 17:53 Sunny 42 5.6 32 undefined 68 68 NNE 17 28 29.91 1013 10 16 N/A
6:53 pm 18:53 Sunny 39 3.9 30 -1.1 70 70 NE 20 31 29.96 1015 10 16 N/A
7:53 pm 19:53 Mostly Clear 37 2.8 29 -1.7 73 73 NE 10 17 30.00 1016 10 16 N/A
8:53 pm 20:53 Mostly Clear 36 2.2 29 -1.7 76 76 NE 9 15 30.01 1016 10 16 N/A
9:19 pm 21:19 Mostly Cloudy 37 2.8 30 -1.1 76 76 NE 8 13 30.02 1017 10 16 N/A
9:53 pm 21:53 Cloudy 36 2.2 30 -1.1 79 79 ENE 7 11 30.03 1017 10 16 N/A
10:53 pm 22:53 Cloudy 36 2.2 27 -2.8 70 70 NNE 16 26 30.03 1017 10 16 N/A
11:49 pm 23:49 Mostly Cloudy 34 1 25 -4 70 70 N 14 22 30.07 1018 10 16 N/A
11:53 pm 23:53 Mostly Cloudy 33 0.6 25 -3.9 72 72 NNE 14 22 30.05 1018 10 16 N/A

Powered by AerisWeather